This is the latest recevied weather packets stored in our database for station/object KD4IZ-13. If no packets are shown the sender has not sent any weather packets the latest 10 day(s).
| Time | Temp. | Humidity | Pressure | Rain* | Wind** | Luminosity | Snow |
|---|---|---|---|---|---|---|---|
| 1778154613 | 10° C | 78% | 1014.3 hPa | 0 mm | - | 65 W/m² | - |
| 1778154309 | 10° C | 78% | 1014.3 hPa | 0 mm | - | 65 W/m² | - |
| 1778154006 | 10° C | 79% | 1014.1 hPa | 0 mm | - | 71 W/m² | - |
| 1778153703 | 10° C | 80% | 1014.1 hPa | 0 mm | - | 53 W/m² | - |
| 1778153400 | 10° C | 80% | 1014.1 hPa | 0 mm | - | 46 W/m² | - |
| 1778153098 | 9.44° C | 79% | 1014.3 hPa | 0 mm | - | 40 W/m² | - |
| 1778152794 | 9.44° C | 81% | 1014.4 hPa | 0 mm | - | 23 W/m² | - |
| 1778152492 | 9.44° C | 82% | 1014.1 hPa | 0 mm | - | 19 W/m² | - |
| 1778152188 | 9.44° C | 80% | 1013.9 hPa | 0 mm | - | 18 W/m² | - |
| 1778151884 | 9.44° C | 81% | 1013.8 hPa | 0 mm | - | 14 W/m² | - |
| 1778151581 | 9.44° C | 82% | 1013.8 hPa | 0 mm | - | 16 W/m² | - |
| 1778151278 | 9.44° C | 83% | 1013.9 hPa | 0 mm | - | 15 W/m² | - |
| 1778150975 | 8.89° C | 85% | 1013.9 hPa | 0 mm | - | 18 W/m² | - |
| 1778150672 | 8.89° C | 85% | 1013.8 hPa | 0 mm | - | 12 W/m² | - |
| 1778150367 | 9.44° C | 87% | 1013.8 hPa | 0 mm | - | 8 W/m² | - |
| 1778150064 | 9.44° C | 88% | 1013.9 hPa | 0 mm | - | 4 W/m² | - |
| 1778149761 | 9.44° C | 88% | 1013.8 hPa | 0 mm | - | 3 W/m² | - |
| 1778149458 | 8.89° C | 82% | 1013.5 hPa | 0 mm | - | 3 W/m² | - |
| 1778149154 | 8.89° C | 84% | 1013.4 hPa | 0 mm | - | 3 W/m² | - |
| 1778148849 | 8.89° C | 85% | 1013.1 hPa | 0 mm | - | 2 W/m² | - |
| 1778148546 | 8.89° C | 84% | 1013.2 hPa | 0 mm | - | 0 W/m² | - |
| 1778148243 | 8.89° C | 84% | 1013.2 hPa | 0 mm | - | 0 W/m² | - |
| 1778147942 | 8.89° C | 83% | 1013.2 hPa | 0 mm | - | 0 W/m² | - |
| 1778147638 | 8.89° C | 85% | 1013.1 hPa | 0 mm | - | 0 W/m² | - |
| 1778147335 | 8.89° C | 87% | 1013 hPa | 0 mm | - | 0 W/m² | - |
* Rain latest hour (hover to see other rain measurements)
** Current wind speed in m/s (hover to see current wind gust speed)